Find Shiyan 26B

NORAD ID: 61908 Int'l Des: NNA 2024-205 Owner: CASC Country: CN operational
LEOCIRCULARRETROGRADESSO

实时位置

正在加载3D地球...

关于 Shiyan 26B

正在加载描述...

即将过境

Passes for default location (London). Set your location on the main map for personalized predictions.

高度历史

Loading altitude history...

两行轨道根数

1 61908U 24205Q 26131.92788104 .00003428 00000-0 17684-3 0 9995
2 61908 97.4140 205.2048 0012396 176.6149 183.5171 15.16941588 82832
Epoch: May 11, 2026 • Age: 6 hours

当前状态

高度 544.9 km
速度 7.59 km/s
星下点 -79.26°S, 45.08°W
发射日期 Nov 11, 2024
运行时间 1.4 years
类型 other

技术详情

分类 Payload
质量 100.00 kg
干质量 100.00 kg
总质量 100.00 kg
长度 1.50 m
直径 1.50 m
跨度 5.00 m
形状 Box+panels
制造商 SECM
阶段状态 In Orbit
所有者/国家 CASC/CN

Most Searched